STARLINK-11231 [DTC]

Last updated on Tue Oct 08 2024 00:02:04 GMT+0000 (Coordinated Universal Time)

1 61057U 24164H 24281.58334491 -.00009017 00000+0 -69612-4 0 9996 2 61057 53.1593 345.7201 0000997 93.0523 117.0729 15.69723640 5001
UTC large
Height (km)
Speed (km/s)
/
Latitude / Longitude
Inclination (degrees)
Orbital Period (minutes)
Azimuth
Elevation
Range (km)
Doppler Factor

Next 0 passes for location: London (51.5072 / 0.1276)

Sorry there are no passes over London.